{"data":{"norad_id":62182,"intl_designator":"2024-225V","name":"STARLINK-32565","alt_names":[],"object_type":"PAYLOAD","status":"ACTIVE","operator":null,"country":"US","launch_date":"2024-11-30","launch_site_code":"AFWTR","launch_vehicle":null,"mission":null,"orbit_class":"UNKNOWN","rcs_meters":null,"size_class":null,"mass_kg":null,"dimensions":null,"purposes":["comms"],"wikipedia_slug":null,"has_3d_model":false,"image_url":null,"decayed_at":null,"tle_current":{"epoch":"2026-05-24T22:54:35.483904Z","epoch_age_seconds":76074,"freshness":"FRESH","line1":"1 62182U 24225V   26144.95457736  .00002997  00000+0  25877-3 0  9995","line2":"2 62182  70.0018 331.9726 0002058 270.5348  89.5576 14.98338166 81303","mean_motion":14.98338166,"eccentricity":0.0002058,"inclination_deg":70.0018,"raan_deg":331.9726,"arg_perigee_deg":270.5348,"mean_anomaly_deg":89.5576,"bstar":0.00025877,"rev_number":8130,"period_min":96.106475338892,"perigee_km":570.60029387774,"apogee_km":573.4609828777,"semimajor_km":6950.1676383777,"source":"CELESTRAK","updated_at":"2026-05-25T13:38:19.604700Z"}}}